www.pogodaiklimat.ru

Погода и климат >> Архив погоды >> Россия >> Ленинградская область >> Белогорка


ПОГОДА в Белогорке

  • Прогноз погоды в Белогорке
  • Монитор погоды в Белогорке
  • Климат города

АРХИВ ПОГОДЫ в Белогорке

Время (UTC), дата Ветер
(напр.,м/с)
 
Видим.   Явления Облачность Т
(С)
Тd
(С)
f
(%)
Тe
(С)
Тes
(С)
Комфортность P
(гПа)
Po
(гПа)
Тmin
(С)
Tmax
(С)
R
(мм)
R24
(мм)
S
(см)
00 8.12 Ю 4 50 км 9/9 660 м
[Sc]
-2.8 -6.1 78 -9 -9 1005.8 994.6
03 8.12 Ю 3 50 км 9/9 630 м
[Sc]
-3.2 -5.8 82 -8 -8 1003.9 992.7 -3.2
06 8.12 Ю 5-10
{10}
50 км 9/9 500 м
[Cb cap]
-2.9 -5.4 83 -10 -10 1003.4 992.2 -3.2 3
09 8.12 Ю 5
{10}
10 км 9/9 600 м
[Sc]
-2.4 -6.0 76 -9 -9 1002.4 991.2
12 8.12 Ю 5
{10}
10 км 9/9 630 м
[Sc]
-2.3 -6.4 73 -9 -9 1001.2 990.0
15 8.12 ЮВ 4 50 км 9/9 630 м
[Sc]
-2.3 -6.1 75 -8 -8 999.8 988.6
18 8.12 Ю 4
{10}
4000 м слабый ливневой снег 9/9 500 м
[Cb cap]
-2.2 -4.3 85 -8 -8 999.1 988.0 -2.0 0.0
21 8.12 Ю 4
{10}
4000 м слабый снег {ливн. осадки} 10/0 360 м
[As op]
-2.7 -4.3 89 -9 -9 999.3 988.1
00 9.12 Ю 3
{11}
4000 м слабый снег {ливн. осадки} 10/0 360 м
[As op]
-2.9 -4.3 90 -8 -8 999.0 987.8
03 9.12 Ю 4 50 км {снег} 10/10 330 м
[St]
-2.9 -4.0 92 -9 -9 998.8 987.6 -3.0 3
06 9.12 Ю 3 50 км {снег} 10/10 330 м
[St]
-2.7 -3.5 94 -8 -8 999.0 987.8 -3.0 3 5
09 9.12 Ю 3 10 км 10/10 330 м
[St]
-2.3 -3.6 91 -8 -8 999.3 988.2
12 9.12 ЮВ 3 10 км 10/10 360 м
[St]
-1.7 -3.2 89 -7 -7 999.0 987.9
15 9.12 Ю 4 50 км 10/10 360 м
[St]
-1.8 -3.1 91 -8 -8 999.1 988.0
18 9.12 ЮВ 4 50 км 10/10 240 м
[St]
-1.6 -2.9 91 -8 -8 999.2 988.1 -1.6
21 9.12 ЮВ 3 50 км 10/10 270 м
[St]
-1.6 -2.9 91 -7 -7 999.3 988.2
00 10.12 ЮВ 3 50 км 10/10 240 м
[St]
-1.8 -3.1 91 -7 -7 999.0 987.9
03 10.12 ЮВ 2 50 км 10/10 200 м
[St]
-2.0 -3.0 93 -6 -6 998.8 987.7 -2.1
06 10.12 В 2 50 км 10/10 240 м
[St]
-2.0 -3.2 91 -6 -6 998.9 987.8 -2.1 4
09 10.12 ЮВ 2 4000 м дымка 10/10 300 м
[St]
-1.8 -3.1 91 -6 -6 999.8 988.7
12 10.12 В 2 10 км 10/10 360 м
[St]
-1.8 -3.2 90 -6 -6 1000.4 989.3
15 10.12 В 2 4000 м слабый снег 10/0 360 м
[As op]
-1.9 -3.0 92 -6 -6 1002.1 990.9 0.0
18 10.12 В 2 4000 м слабый снег 10/0 240 м
[As op]
-2.0 -2.8 94 -6 -6 1003.0 991.8 -1.7 0.2
21 10.12 СВ 1 4000 м слабый снег 10/0 270 м
[As op]
-2.1 -2.7 96 -4 -4 1004.4 993.2
00 11.12 СВ 1 4000 м слабый снег 10/0 240 м
[As op]
-2.0 -2.6 96 -4 -4 1005.9 994.7
03 11.12 СВ 1 4000 м слабый снег 10/0
[As op]
-1.8 -2.3 96 -4 -4 1007.2 996.0 -2.1 2
06 11.12 СВ 2 4000 м слабый снег 10/0 240 м
[As op]
-1.6 -1.9 98 -6 -6 1009.1 997.9 -2.1 3 7
09 11.12 СВ 1 4000 м дымка {снег} 10/0 270 м
[As op]
-1.1 -1.5 97 -3 -3 1010.9 999.7
12 11.12 СВ 2 4000 м слабый снег 10/0 240 м
[As op]
-0.9 -1.5 96 -5 -5 1012.6 1001.4
15 11.12 СВ 2 4000 м слабый снег 10/0 240 м
[As op]
-1.3 -1.8 96 -5 -5 1014.3 1003.0 1
18 11.12 С 2 4000 м слабый снег 10/0 300 м
[As op]
-0.6 -0.9 98 -5 -5 1016.1 1004.8 -0.6 1
21 11.12 С 2 50 км {снег} 10/10 330 м
[St]
-0.6 -0.9 98 -5 -5 1017.9 1006.6
00 12.12 С 3 50 км {снег} 10/10 300 м
[St]
-1.2 -1.6 97 -6 -6 1019.3 1008.0
03 12.12 С 3 50 км 10/10 300 м
[St]
-1.6 -2.1 96 -7 -7 1020.7 1009.3 -1.6 0.5
06 12.12 С 3 50 км 10/10 360 м
[St]
-1.6 -2.4 94 -7 -7 1022.5 1011.1 -1.6 0.0 8
09 12.12 С 2 10 км 10/10 300 м
[St]
-1.9 -3.0 92 -6 -6 1024.5 1013.1
12 12.12 С 3 10 км 10/10 270 м
[St]
-2.7 -3.8 92 -8 -8 1025.3 1013.8
15 12.12 С 2 4000 м слабый снег 10/0 270 м
[As op]
-3.4 -4.3 93 -8 -8 1026.4 1014.9 0.0
18 12.12 С 2 50 км {снег} 10/10 270 м
[St]
-3.1 -4.2 92 -7 -7 1026.9 1015.4 -1.6 0.0
21 12.12 С 3 4000 м слабый снег 10/0 240 м
[As op]
-2.1 -3.0 94 -7 -7 1027.9 1016.4
00 13.12 СВ 3 50 км {снег} 10/10 270 м
[St]
-1.5 -2.5 93 -7 -7 1028.6 1017.2
03 13.12 СВ 3 50 км 10/10 200 м
[St]
-1.4 -2.4 93 -6 -6 1029.4 1018.0 -3.1 0.0
06 13.12 СВ 3 50 км 10/10 210 м
[St]
-1.3 -2.3 93 -6 -6 1030.1 1018.7 -3.1 0.0 8
09 13.12 СВ 5 10 км 10/10 240 м
[St]
-1.4 -2.8 90 -8 -8 1031.0 1019.5
12 13.12 СВ 4 10 км 10/10 360 м
[St]
-2.3 -4.3 86 -8 -8 1031.4 1019.9
15 13.12 СВ 4 50 км 10/10 360 м
[St]
-3.3 -5.3 86 -9 -9 1032.0 1020.4
18 13.12 СВ 2 50 км 10/10 360 м
[St]
-3.8 -6.1 84 -8 -8 1032.5 1020.9 -1.3
21 13.12 СВ 2 50 км 10/10 360 м
[St]
-3.9 -5.7 87 -8 -8 1033.1 1021.5
00 14.12 СВ 3 50 км 10/10 360 м
[St]
-4.2 -6.1 87 -10 -10 1033.4 1021.8
03 14.12 СВ 2 50 км 10/10 360 м
[St]
-4.4 -6.5 85 -9 -9 1033.2 1021.6 -4.4
06 14.12 СВ 3 50 км 10/10 300 м
[St]
-5.0 -6.7 88 -11 -11 1033.9 1022.2 -5.0 8
09 14.12 СВ 2 10 км 10/10 300 м
[St]
-5.2 -6.8 88 -10 -10 1034.6 1022.9
12 14.12 СВ 1 10 км 10/10 210 м
[St]
-5.7 -6.8 92 -8 -8 1034.8 1023.1
15 14.12 СВ 3 50 км 10/10 210 м
[St]
-5.9 -6.8 93 -12 -12 1035.2 1023.5
18 14.12 СВ 2 50 км 10/10 300 м
[St]
-6.5 -7.3 94 -11 -11 1035.8 1024.1 -5.0
21 14.12 СВ 1 4000 м слабый снег 10/0 270 м
[As op]
-6.3 -7.2 93 -9 -9 1036.2 1024.5

 

Местоположение метеостанции Белогорка (Ленинградская область, Россия): широта 59.35 долгота 30.13 высота над уровнем моря 89 м.

В архиве по умолчанию представлена погода в Белогорке за последнюю неделю. Архивные данные за месяц целиком и за предыдущие месяцы, начиная с января 2011 года, Вы можете получить, выбрав интересующий диапазон дат из раскрывающегося списка и нажав кнопку "Ввод!".


*Определитесь, кто Вы:
робот инопланетянин человек

Внимание! Время в таблицах - всемирное. Для получения местного времени необходимо прибавить поправку, которая в Белогорке равна 3 ч.

Смотрите также архив погоды в соседних городах и на ближайших метеорологических станциях:

Погода в Волосово (Ленинградская область, Россия) (37 км)
Погода в Любани (Ленинградская область, Россия) (62 км)
Погода в Ломоносове (город Санкт-Петербург, Россия) (66 км)
Погода в Санкт-Петербурге (город Санкт-Петербург, Россия) (70 км)
Погода в Кронштадте (город Санкт-Петербург, Россия) (73 км)
Погода в Шепелево (Ленинградская область, Россия) (73 км)
Погода в Воейково (город Санкт-Петербург, Россия) (74 км)
Погода в Лисьем Носу (город Санкт-Петербург, Россия) (75 км)
Погода в Сосновом Бору (Ленинградская область, Россия) (75 км)
Погода в Шлиссельбурге (Ленинградская область, Россия) (81 км)

Пояснения к столбцам:

Ветер - указаны скорость ветра в м/с - средняя за 10 мин, порывы в срок и между сроками (в фигурных скобках) и направление, откуда дует ветер: С - северный, СВ - северо-восточный, В - восточный, ЮВ - юго-восточный, Ю - южный, ЮЗ - юго-западный, З - западный, СЗ - северо-западный.
Видимость - горизонтальная дальность видимости в метрах или километрах. При видимости от 1 до 10 км при отсутствии осадков обычно наблюдается дымка, при ухудшении видимости до 1 км и менее - туман. В сухую погоду видимость может ухудшаться дымом, пылью или мглою.
Явления - указаны атмосферные явления, наблюдавшиеся в срок или в последний час перед сроком; фигурными скобками обозначены явления, наблюдавшиеся между сроками (за 1-3 часа до срока); квадратными скобками обозначены град или гололедные отложения с указанием их диаметра в мм.
Облачность - указаны через наклонную черту общая и нижняя облачность в баллах и высота нижней границы облаков в метрах; квадратными скобками обозначены формы облаков: Ci - перистые, Cs - перисто-слоистые, Cc - перисто-кучевые, Ac - высококучевые, As - высокослоистые, Sc - слоисто-кучевые, Ns - слоисто-дождевые, Cu - кучевые, Cb - кучево-дождевые. Подробнее классификацию облаков см. в Атласе облаков (PDF).
T - Температура воздуха - температура, измеренная на высоте 2 м над землей.
Td - Температура точки росы - температура, при понижении до которой содержащийся в воздухе водяной пар достигнет насыщения.
f - Относительная влажность воздуха - влажноcть воздуха, измеренная на высоте 2 м над землей.
Te - Эффективная температура - температура, которую ощущает одетый по сезону человек в тени. Характеристика душности погоды. При расчете учитывается влияние влажности воздуха и скорости ветра на теплоощущения человека.
Tes - Эффективная температура на солнце - температура, которую ощущает человек, с поправкой на солнечный нагрев. Характеристика знойности погоды. Зависит от высоты солнца над горизонтом, облачности и скорости ветра. Ночью, в пасмурную погоду, а также при ветре 12 м/с и более поправка равна нулю.
P - Атмосферное давление - приведенное к уровню моря атмосферное давление.
Po - Атмосферное давление - измеренное на уровне метеостанции атмосферное давление.
Tmin - Минимальная температура - минимум температуры воздуха на высоте 2 м над землей.
Tmax - Максимальная температура - максимум температуры воздуха на высоте 2 м над землей.
R - Количество осадков - Количество выпавших осадков за период времени, мм. При наведении курсора мыши на число - период времени, за который выпало указанное количество осадков.
R24 - Количество осадков - Количество выпавших осадков за 24 часа, мм.
S - Снежный покров - Высота снежного покрова, см. При наведении курсора мыши на число - состояние снежного покрова и степень покрытия местности в баллах.